Ketchikan, AK

9:12 AM AKST on November 13, 2018 (GMT -0900)
Ketchikan International

Weather History for PAKT - October, 2017

Change the Weather History Date:

Tuesday, October 17, 2017

  Actual Average Record
Temperature  
Mean Temperature 42 °F -  
Max Temperature 48 °F 50 °F 60 °F (1960)
Min Temperature 37 °F 40 °F 29 °F (1949)
Degree Days  
Heating Degree Days 22    
Moisture  
Dew Point 41 °F    
Average Humidity 89    
Maximum Humidity 100    
Minimum Humidity 71    
Precipitation  
Precipitation 0.21 in - - ()
Sea Level Pressure  
Sea Level Pressure 29.68 in    
Wind  
Wind Speed 6 mph (SE)    
Max Wind Speed 26 mph    
Max Gust Speed 37 mph    
Visibility 9 miles    
Events Rain    
Averages and records for this station are not official NWS values.
T = Trace of Precipitation, MM = Missing Value Source: NWS Daily Summary

Daily Weather History Graph

Daily Weather History Graph

Search for Another Location

Airport or City:

Astronomy

Oct. 17, 2017 Rise Set
Actual Time 7:21 AM AKDT 5:41 PM AKDT
Civil Twilight 6:44 AM AKDT 6:18 PM AKDT
Nautical Twilight 6:02 AM AKDT 7:00 PM AKDT
Astronomical Twilight 5:19 AM AKDT 7:43 PM AKDT
Moon 4:34 AM AKDT (10/17) 5:28 PM AKDT (10/17)
Length of Visible Light 11h 33m
Length of Day
10h 19m
Waning Crescent, 4% of the Moon is Illuminated
Oct 17
Waning Crescent
Oct 19
New
Oct 27
First Quarter
Nov 3
Full
Nov 10
Last Quarter

Hourly Weather History & Observations

Time (AKDT) Temp. Windchill Dew Point Humidity Pressure Visibility Wind Dir Wind Speed Gust Speed Precip Events Conditions
12:53 AM 39.9 °F 37.8 °F 39.0 °F 97% 29.62 in 10.0 mi West 3.5 mph - N/A   Clear
1:53 AM 39.0 °F - 37.9 °F 96% 29.63 in 10.0 mi Calm Calm - N/A   Overcast
2:53 AM 37.0 °F - 36.0 °F 96% 29.65 in 10.0 mi Calm Calm - N/A   Mostly Cloudy
3:53 AM 39.9 °F - 39.0 °F 97% 29.65 in 10.0 mi Calm Calm - N/A   Overcast
4:53 AM 39.9 °F - 39.0 °F 97% 29.67 in 10.0 mi Calm Calm - N/A   Overcast
5:53 AM 39.9 °F 37.8 °F 39.0 °F 97% 29.69 in 10.0 mi South 3.5 mph - N/A   Overcast
6:09 AM 39.9 °F 37.8 °F 39.0 °F 97% 29.68 in 10.0 mi South 3.5 mph - N/A   Overcast
6:53 AM 39.0 °F - 37.9 °F 96% 29.70 in 10.0 mi Calm Calm - N/A   Mostly Cloudy
7:53 AM 37.4 °F - 37.4 °F 100% 29.72 in 10.0 mi Calm Calm - N/A   Partly Cloudy
8:53 AM 43.0 °F 41.3 °F 41.0 °F 93% 29.74 in 10.0 mi SE 3.5 mph - N/A   Partly Cloudy
9:53 AM 44.1 °F 40.8 °F 42.1 °F 93% 29.76 in 10.0 mi SE 5.8 mph - N/A   Scattered Clouds
10:53 AM 46.4 °F 42.9 °F 42.8 °F 87% 29.78 in 10.0 mi ESE 6.9 mph - N/A Rain Light Rain
11:53 AM 46.4 °F 41.5 °F 42.8 °F 87% 29.78 in 10.0 mi ESE 10.4 mph - N/A   Overcast
12:53 PM 48.2 °F - 42.8 °F 82% 29.79 in 10.0 mi SE 10.4 mph - N/A   Overcast
1:53 PM 48.9 °F - 39.9 °F 71% 29.79 in 10.0 mi SE 9.2 mph - N/A   Overcast
2:53 PM 46.9 °F - 41.0 °F 80% 29.80 in 10.0 mi ESE 5.8 mph - 0.03 in Rain Light Rain
3:53 PM 46.9 °F - 42.1 °F 83% 29.79 in 6.0 mi SE 6.9 mph - 0.02 in Rain Light Rain
4:53 PM 45.0 °F 41.2 °F 42.1 °F 90% 29.78 in 10.0 mi SE 6.9 mph - 0.00 in   Mostly Cloudy
5:53 PM 44.1 °F 39.5 °F 42.1 °F 93% 29.74 in 10.0 mi SE 8.1 mph - 0.02 in Rain Light Rain
6:53 PM 45.0 °F 40.6 °F 41.0 °F 86% 29.71 in 10.0 mi SSE 8.1 mph - 0.01 in   Overcast
7:53 PM 45.0 °F 37.9 °F 41.0 °F 86% 29.67 in 9.0 mi SE 16.1 mph 21.9 mph 0.01 in Rain Light Rain
8:53 PM 46.0 °F 41.9 °F 42.1 °F 86% 29.63 in 10.0 mi South 8.1 mph - 0.00 in Rain Light Rain
9:45 PM 46.0 °F 39.6 °F 41.0 °F 83% 29.58 in 10.0 mi SE 15.0 mph - 0.01 in Rain Light Rain
9:53 PM 46.0 °F 39.0 °F 42.1 °F 86% 29.57 in 10.0 mi SE 17.3 mph 25.3 mph 0.01 in   Overcast
10:41 PM 46.0 °F 38.5 °F 43.0 °F 89% 29.53 in 4.0 mi SE 19.6 mph 28.8 mph 0.06 in Rain Rain
10:53 PM 45.0 °F 38.9 °F 42.1 °F 90% 29.54 in 3.0 mi SE 12.7 mph 28.8 mph 0.10 in Rain Heavy Rain
11:15 PM 46.0 °F 38.8 °F 42.1 °F 86% 29.49 in 10.0 mi SE 18.4 mph 25.3 mph 0.01 in   Overcast
11:53 PM 46.9 °F - 41.0 °F 80% 29.45 in 10.0 mi SE 26.5 mph 36.8 mph 0.01 in   Overcast